FW7011 Weather Reports


time (UTC)temp
F
wind
direction
speed
knots
gust
knots
rain 1hr
in
rain 24hr
in
rain mn
in
humidity
%
barometer
mb
20260505114420 50 106 3.5 4.3 0.00 0.00 0.00 84 1017.1
20260505113916 49 108 2.6 4.3 0.00 0.00 0.00 85 1017.1
20260505113413 48 116 3.5 4.3 0.00 0.00 0.00 86 1017.1
20260505112908 48 122 3.5 4.3 0.00 0.00 0.00 86 1017.0
20260505112407 48 123 2.6 2.6 0.00 0.00 0.00 87 1017.3
20260505111902 47 85 1.7 1.7 0.00 0.00 0.00 88 1017.0
20260505111357 47 104 2.6 4.3 0.00 0.00 0.00 88 1017.0
20260505110853 47 124 4.3 5.2 0.00 0.00 0.00 86 1017.1
20260505110351 48 98 3.5 4.3 0.00 0.00 0.00 85 1017.1
20260505101821 46 61 1.7 1.7 0.00 0.00 0.00 88 1016.8
20260505101316 47 103 1.7 3.5 0.00 0.00 0.00 87 1016.7
20260505100812 48 110 2.6 4.3 0.00 0.00 0.00 86 1016.6
20260505100309 47 116 2.6 3.5 0.00 0.00 0.00 86 1016.5
20260505095805 47 35 1.7 2.6 0.00 0.00 0.00 85 1016.5
20260505095304 47 106 3.5 4.3 0.00 0.00 0.00 86 1016.6
20260505094758 47 125 3.5 4.3 0.00 0.00 0.00 84 1016.5
20260505094255 50 119 2.6 4.3 0.00 0.00 0.00 81 1016.4
20260505093751 51 111 3.5 4.3 0.00 0.00 0.00 78 1016.5
20260505093249 51 97 2.6 4.3 0.00 0.00 0.00 75 1016.5
20260505092745 51 103 2.6 3.5 0.00 0.00 0.00 75 1016.5
20260505092244 50 73 3.5 5.2 0.00 0.00 0.00 79 1016.4
20260505091741 49 126 5.2 6.1 0.00 0.00 0.00 81 1016.5
20260505091239 50 119 5.2 5.2 0.00 0.00 0.00 80 1016.4
20260505090736 52 119 3.5 4.3 0.00 0.00 0.00 73 1016.1
20260505090234 51 107 4.3 5.2 0.00 0.00 0.00 75 1016.4
20260505085731 53 105 4.3 4.3 0.00 0.00 0.00 71 1016.4
20260505085230 52 105 3.5 4.3 0.00 0.00 0.00 72 1016.2
20260505084727 52 103 4.3 5.2 0.00 0.00 0.00 73 1016.1
20260505084226 53 111 3.5 5.2 0.00 0.00 0.00 72 1016.1
20260505083722 52 84 2.6 5.2 0.00 0.00 0.00 71 1016.1
20260505083219 53 107 4.3 6.1 0.00 0.00 0.00 72 1016.4
20260505082715 52 100 2.6 4.3 0.00 0.00 0.00 73 1016.0
20260505082213 53 114 4.3 4.3 0.00 0.00 0.00 69 1016.0
20260505081708 53 111 4.3 4.3 0.00 0.00 0.00 69 1015.8
20260505081206 50 106 4.3 4.3 0.00 0.00 0.00 78 1016.0
20260505080703 51 111 5.2 6.1 0.00 0.00 0.00 76 1016.0
20260505080158 51 110 5.2 5.2 0.00 0.00 0.00 76 1015.8
20260505075654 53 104 4.3 5.2 0.00 0.00 0.00 71 1015.8
20260505075151 52 109 4.3 5.2 0.00 0.00 0.00 72 1015.7
20260505074648 52 107 4.3 6.1 0.00 0.00 0.00 73 1015.4
20260505074145 51 119 5.2 6.1 0.00 0.00 0.00 76 1015.5
20260505073643 52 103 4.3 6.1 0.00 0.00 0.00 75 1015.5
20260505073141 53 108 5.2 6.1 0.00 0.00 0.00 72 1015.3
20260505072636 53 111 4.3 6.1 0.00 0.00 0.00 70 1015.3
20260505072133 55 113 4.3 5.2 0.00 0.00 0.00 65 1015.7
20260505071628 55 112 4.3 5.2 0.00 0.00 0.00 65 1015.4
20260505071126 54 103 4.3 5.2 0.00 0.00 0.00 69 1015.6
20260505070624 54 104 4.3 5.2 0.00 0.00 0.00 71 1015.7
20260505070120 53 98 4.3 5.2 0.00 0.00 0.00 68 1015.6
20260505065616 54 111 5.2 6.1 0.00 0.00 0.00 70 1015.7
20260505065112 55 105 4.3 5.2 0.00 0.00 0.00 66 1015.5
20260505064609 53 105 4.3 6.1 0.00 0.00 0.00 74 1015.6
20260505064108 53 109 4.3 6.1 0.00 0.00 0.00 73 1015.4
20260505063605 54 107 5.2 5.2 0.00 0.00 0.00 68 1015.7
20260505063100 53 115 4.3 6.1 0.00 0.00 0.00 72 1015.5
20260505062557 54 107 4.3 4.3 0.00 0.00 0.00 69 1015.6
20260505062055 55 118 4.3 4.3 0.00 0.00 0.00 65 1015.5
20260505061552 55 110 4.3 4.3 0.00 0.00 0.00 68 1015.5
20260505061050 55 112 3.5 4.3 0.00 0.00 0.00 63 1015.7
20260505060547 55 115 3.5 5.2 0.00 0.00 0.00 66 1015.5
20260505060044 57 111 3.5 4.3 0.00 0.00 0.00 61 1015.5
20260505055539 58 106 1.7 2.6 0.00 0.00 0.00 56 1015.5
20260505055036 57 128 2.6 3.5 0.00 0.00 0.00 57 1015.4
20260505054533 57 99 3.5 4.3 0.00 0.00 0.00 59 1015.6
20260505054031 57 101 3.5 4.3 0.00 0.00 0.00 60 1015.7
20260505053528 57 107 2.6 3.5 0.00 0.00 0.00 59 1015.5
20260505053025 56 104 3.5 3.5 0.00 0.00 0.00 62 1015.7
20260505052522 56 107 4.3 4.3 0.00 0.00 0.00 69 1015.9
20260505052020 56 104 2.6 4.3 0.00 0.00 0.00 66 1015.7
20260505051516 58 107 2.6 4.3 0.00 0.00 0.00 59 1015.8
20260505051014 58 118 2.6 3.5 0.00 0.00 0.00 58 1015.7
20260505050512 58 102 2.6 2.6 0.00 0.00 0.00 55 1015.5
20260505041440 59 102 2.6 3.5 0.00 0.00 0.00 55 1015.5
20260505040937 60 110 3.5 4.3 0.00 0.00 0.00 55 1015.5
20260505040434 59 119 3.5 4.3 0.00 0.00 0.00 55 1015.4
20260505035931 58 116 2.6 4.3 0.00 0.00 0.00 59 1015.6
20260505035427 59 102 3.5 4.3 0.00 0.00 0.00 56 1015.5
20260505034925 60 120 2.6 4.3 0.00 0.00 0.00 53 1015.4
20260505034421 60 107 3.5 3.5 0.00 0.00 0.00 53 1015.6
20260505033918 60 127 1.7 2.6 0.00 0.00 0.00 54 1015.7
20260505033414 60 109 2.6 3.5 0.00 0.00 0.00 56 1015.6
20260505032913 60 107 2.6 4.3 0.00 0.00 0.00 53 1015.6
20260505032409 61 111 2.6 4.3 0.00 0.00 0.00 52 1015.7
20260505031906 61 95 2.6 3.5 0.00 0.00 0.00 52 1015.6
20260505031403 61 115 3.5 3.5 0.00 0.00 0.00 51 1015.7
20260505030900 60 113 1.7 2.6 0.00 0.00 0.00 52 1016.0
20260505030356 60 104 1.7 1.7 0.00 0.00 0.00 52 1016.0
20260505025851 62 141 1.7 3.5 0.00 0.00 0.00 51 1015.7
20260505025349 62 100 2.6 3.5 0.00 0.00 0.00 51 1015.8
20260505024848 62 126 2.6 3.5 0.00 0.00 0.00 51 1015.9
20260505024345 62 92 1.7 2.6 0.00 0.00 0.00 52 1015.7
20260505023842 62 116 2.6 3.5 0.00 0.00 0.00 51 1015.8
20260505023339 61 101 3.5 4.3 0.00 0.00 0.00 55 1015.6
20260505022836 61 98 3.5 5.2 0.00 0.00 0.00 56 1015.8
20260505022333 62 109 4.3 5.2 0.00 0.00 0.00 56 1015.7
20260505021831 62 123 2.6 4.3 0.00 0.00 0.00 55 1015.6
20260505021327 62 123 4.3 5.2 0.00 0.00 0.00 56 1015.5
20260505020822 62 95 3.5 4.3 0.00 0.00 0.00 54 1015.7
20260505020318 62 110 2.6 5.2 0.00 0.00 0.00 55 1015.7
20260505015815 62 127 4.3 5.2 0.00 0.00 0.00 58 1015.6
20260505015313 63 109 4.3 5.2 0.00 0.00 0.00 54 1015.5
20260505014810 64 129 3.5 4.3 0.00 0.00 0.00 54 1015.7
20260505014307 64 120 3.5 4.3 0.00 0.00 0.00 51 1015.5
20260505013803 64 106 3.5 7.0 0.00 0.00 0.00 52 1015.4
20260505013301 64 120 5.2 5.2 0.00 0.00 0.00 53 1015.3
20260505012759 64 125 2.6 4.3 0.00 0.00 0.00 53 1015.4
20260505012256 64 111 3.5 5.2 0.00 0.00 0.00 53 1015.4
20260505011751 64 115 3.5 4.3 0.00 0.00 0.00 54 1015.3
20260505011249 64 123 3.5 3.5 0.00 0.00 0.00 56 1015.2
20260505010744 64 113 2.6 4.3 0.00 0.00 0.00 56 1015.2
20260505010241 64 127 2.6 4.3 0.00 0.00 0.00 56 1015.2
20260505005737 64 113 2.6 4.3 0.00 0.00 0.00 55 1015.2
20260505005234 64 119 3.5 4.3 0.00 0.00 0.00 58 1014.8
20260505004731 64 115 3.5 4.3 0.00 0.00 0.00 56 1015.0
20260505004228 65 112 3.5 4.3 0.00 0.00 0.00 55 1015.0
20260505003725 65 115 4.3 4.3 0.00 0.00 0.00 53 1014.8
20260505003223 66 127 3.5 4.3 0.00 0.00 0.00 54 1014.8
20260505002719 66 123 4.3 4.3 0.00 0.00 0.00 54 1014.9
20260505002216 66 128 3.5 4.3 0.00 0.00 0.00 52 1014.7
20260505001714 67 112 2.6 4.3 0.00 0.00 0.00 51 1014.6
20260505001211 68 116 2.6 4.3 0.00 0.00 0.00 49 1014.7
20260505000708 68 125 3.5 3.5 0.00 0.00 0.00 48 1015.0
20260505000206 69 137 1.7 2.6 0.00 0.00 0.00 47 1015.0
20260504235702 70 132 0.9 2.6 0.00 0.00 0.00 46 1014.6
20260504235158 71 157 0.9 4.3 0.00 0.00 0.00 45 1014.6
20260504234656 71 148 1.7 2.6 0.00 0.00 0.00 44 1014.7
20260504234153 72 119 2.6 2.6 0.00 0.00 0.00 43 1014.5
20260504233649 73 140 1.7 3.5 0.00 0.00 0.00 43 1014.6
20260504233145 74 149 1.7 3.5 0.00 0.00 0.00 42 1014.5
20260504232643 74 60 0.9 3.5 0.00 0.00 0.00 40 1014.5
20260504232139 76 114 0.0 2.6 0.00 0.00 0.00 40 1014.3
20260504231636 75 56 0.9 3.5 0.00 0.00 0.00 40 1014.1
20260504231132 75 244 4.3 8.7 0.00 0.00 0.00 41 1014.5
20260504230629 75 253 3.5 6.1 0.00 0.00 0.00 39 1014.4
20260504230128 75 205 0.0 4.3 0.00 0.00 0.00 40 1014.2
20260504225625 76 153 0.0 4.3 0.00 0.00 0.00 39 1014.4
20260504225121 77 257 7.0 7.0 0.00 0.00 0.00 37 1014.3
20260504224618 77 197 2.6 2.6 0.00 0.00 0.00 40 1014.2
20260504224115 76 259 4.3 6.1 0.00 0.00 0.00 37 1014.1
20260504223612 76 272 3.5 8.7 0.00 0.00 0.00 39 1014.1
20260504223108 77 217 2.6 4.3 0.00 0.00 0.00 39 1014.2
20260504222605 77 266 0.0 5.2 0.00 0.00 0.00 37 1014.1
20260504222102 77 188 0.9 4.3 0.00 0.00 0.00 38 1014.2
20260504221559 78 227 1.7 5.2 0.00 0.00 0.00 39 1014.4
20260504221056 78 130 1.7 4.3 0.00 0.00 0.00 38 1014.1
20260504220552 78 292 1.7 5.2 0.00 0.00 0.00 37 1014.2
20260504220049 77 290 2.6 7.0 0.00 0.00 0.00 39 1014.2
20260504215546 77 248 6.1 9.6 0.00 0.00 0.00 38 1014.0
20260504215044 77 218 3.5 9.6 0.00 0.00 0.00 39 1014.1
20260504214539 78 221 2.6 6.1 0.00 0.00 0.00 40 1014.2
20260504214036 78 104 1.7 4.3 0.00 0.00 0.00 38 1014.1
20260504213532 78 341 1.7 3.5 0.00 0.00 0.00 39 1014.3
20260504213030 76 211 3.5 9.6 0.00 0.00 0.00 38 1014.2
20260504212525 76 240 5.2 14.8 0.00 0.00 0.00 37 1014.0
20260504212023 77 216 7.8 9.6 0.00 0.00 0.00 38 1014.4
20260504211520 76 247 5.2 9.6 0.00 0.00 0.00 39 1014.1
20260504211017 77 220 4.3 8.7 0.00 0.00 0.00 39 1014.3
20260504210514 77 286 7.0 9.6 0.00 0.00 0.00 37 1014.2
20260504210011 77 230 2.6 6.1 0.00 0.00 0.00 40 1014.1
20260504205508 78 240 7.0 9.6 0.00 0.00 0.00 39 1014.2
20260504205006 78 313 0.0 5.2 0.00 0.00 0.00 38 1014.1
20260504204504 78 284 6.1 7.8 0.00 0.00 0.00 41 1014.3
20260504204003 78 235 2.6 4.3 0.00 0.00 0.00 42 1014.2
20260504203500 77 282 7.8 7.8 0.00 0.00 0.00 39 1014.4
20260504202956 76 249 7.8 12.2 0.00 0.00 0.00 40 1014.5
20260504202453 76 242 3.5 7.8 0.00 0.00 0.00 42 1014.3
20260504201950 75 246 4.3 9.6 0.00 0.00 0.00 40 1014.6
20260504201447 77 237 8.7 9.6 0.00 0.00 0.00 39 1014.6
20260504200944 75 264 7.8 8.7 0.00 0.00 0.00 42 1014.7
20260504200441 75 303 3.5 5.2 0.00 0.00 0.00 41 1014.5
20260504195938 76 227 1.7 7.8 0.00 0.00 0.00 43 1014.8
20260504195433 75 218 7.0 8.7 0.00 0.00 0.00 40 1014.8
20260504194930 74 236 4.3 10.4 0.00 0.00 0.00 42 1014.7
20260504194426 74 236 4.3 7.8 0.00 0.00 0.00 42 1014.9
20260504193922 74 231 5.2 10.4 0.00 0.00 0.00 43 1014.9
20260504193420 75 258 7.8 10.4 0.00 0.00 0.00 41 1015.1
20260504192918 73 264 4.3 7.8 0.00 0.00 0.00 43 1015.0
20260504192415 74 269 4.3 11.3 0.00 0.00 0.00 43 1015.3
20260504191914 73 186 2.6 8.7 0.00 0.00 0.00 43 1015.2
20260504191412 75 216 1.7 5.2 0.00 0.00 0.00 44 1015.3
20260504190907 75 246 2.6 6.1 0.00 0.00 0.00 44 1015.5
20260504190403 74 250 7.0 8.7 0.00 0.00 0.00 45 1015.6
20260504185900 73 296 1.7 6.1 0.00 0.00 0.00 42 1015.4
20260504185357 74 298 4.3 7.8 0.00 0.00 0.00 45 1015.7
20260504184853 72 350 2.6 7.8 0.00 0.00 0.00 42 1015.8
20260504184349 73 235 4.3 12.2 0.00 0.00 0.00 43 1015.9
20260504183845 73 258 4.3 9.6 0.00 0.00 0.00 43 1015.9
20260504183343 73 245 3.5 7.8 0.00 0.00 0.00 45 1015.7
20260504182840 73 260 1.7 5.2 0.00 0.00 0.00 45 1015.8
20260504182337 72 282 2.6 5.2 0.00 0.00 0.00 45 1016.0
20260504181833 73 214 9.6 12.2 0.00 0.00 0.00 42 1016.4
20260504181331 73 225 10.4 12.2 0.00 0.00 0.00 43 1016.2
20260504180830 71 300 4.3 12.2 0.00 0.00 0.00 48 1016.0
20260504180328 72 256 3.5 7.0 0.00 0.00 0.00 43 1016.5
20260504175826 73 236 6.1 7.8 0.00 0.00 0.00 45 1016.4
20260504175322 71 320 4.3 6.1 0.00 0.00 0.00 45 1016.6
20260504174821 70 244 7.0 12.2 0.00 0.00 0.00 44 1016.6
20260504174318 71 205 1.7 4.3 0.00 0.00 0.00 44 1016.8
20260504173815 71 185 4.3 6.1 0.00 0.00 0.00 45 1016.5
20260504173311 70 260 3.5 7.8 0.00 0.00 0.00 45 1016.7
20260504172808 70 289 5.2 6.1 0.00 0.00 0.00 44 1016.7
20260504172305 69 276 1.7 4.3 0.00 0.00 0.00 49 1016.7
20260504171800 69 269 6.1 7.0 0.00 0.00 0.00 47 1016.9
20260504171258 69 250 5.2 11.3 0.00 0.00 0.00 47 1016.8
20260504170755 68 284 7.8 10.4 0.00 0.00 0.00 47 1017.0
20260504170252 69 225 6.1 7.8 0.00 0.00 0.00 47 1017.0
20260504160210 65 256 2.6 7.8 0.00 0.00 0.00 48 1017.7
20260504151139 63 232 1.7 5.2 0.00 0.00 0.00 49 1018.0
20260504150636 64 266 4.3 9.6 0.00 0.00 0.00 47 1018.3
20260504150133 65 205 6.1 7.8 0.00 0.00 0.00 43 1018.5
20260504141101 61 255 2.6 5.2 0.00 0.00 0.00 45 1018.5
20260504140558 62 164 2.6 2.6 0.00 0.00 0.00 46 1018.3
20260504130522 58 217 0.0 1.7 0.00 0.00 0.00 57 1018.2